Brookhaven, MS

8:31 PM CST on February 10, 2016 (GMT -0600)
Brookhaven

Weather History for K1R7 - March, 2014

Change the Weather History Date:

Tuesday, March 11, 2014

  Actual Average (KMCB) Record (KMCB)
Temperature  
Mean Temperature 58 °F -  
Max Temperature 66 °F 70 °F 86 °F (1967)
Min Temperature 51 °F 45 °F 26 °F (1998)
Degree Days  
Heating Degree Days 6    
Growing Degree Days 8 (Base 50)    
Moisture  
Dew Point 60 °F    
Average Humidity 98    
Maximum Humidity 100    
Minimum Humidity 88    
Precipitation  
Precipitation 0.07 in - - ()
Sea Level Pressure  
Sea Level Pressure 29.81 in    
Wind  
Wind Speed 1 mph (SSE)    
Max Wind Speed 10 mph    
Max Gust Speed -    
Visibility 4 miles    
Events Fog , Rain    
Averages and records for this station are not official NWS values.
T = Trace of Precipitation, MM = Missing Value Source: NWS Daily Summary

Daily Weather History Graph

Daily Weather History Graph

Search for Another Location

Airport or City:

Trip Planner

Search our weather history database for the weather conditions in past years. The results will help you decide how hot, cold, wet, or windy it might be!

Date:

Astronomy

Mar. 11, 2014 Rise Set
Actual Time 7:16 AM CDT 7:06 PM CDT
Civil Twilight 6:52 AM CDT 7:31 PM CDT
Nautical Twilight 6:24 AM CDT 7:59 PM CDT
Astronomical Twilight 5:55 AM CDT 8:27 PM CDT
Moon 2:56 PM CDT 3:57 AM CDT
Length of Visible Light 12h 38m
Length of Day
11h 50m
Waxing Gibbous, 78% of the Moon is Illuminated
Mar 11
Waxing Gibbous
Mar 16
Full
Mar 23
Last Quarter
Mar 30
New
Apr 7
First Quarter

Hourly Weather History & Observations

Time (CDT) Temp. Dew Point Humidity Pressure Visibility Wind Dir Wind Speed Gust Speed Precip Events Conditions
12:15 AM 53.6 °F 53.6 °F 100% 29.97 in 6.0 mi Calm Calm - N/A   Clear
12:35 AM 53.6 °F 53.6 °F 100% 29.96 in 7.0 mi Calm Calm - N/A   Clear
12:55 AM 53.6 °F 53.6 °F 100% 29.95 in 4.0 mi SSE 3.5 mph - N/A   Clear
1:15 AM 53.6 °F 53.6 °F 100% 29.95 in 7.0 mi Calm Calm - N/A   Clear
1:35 AM 53.6 °F 53.6 °F 100% 29.95 in 5.0 mi Calm Calm - N/A   Clear
1:55 AM 53.6 °F 53.6 °F 100% 29.94 in 3.0 mi Calm Calm - N/A   Clear
2:15 AM 53.6 °F 53.6 °F 100% 29.94 in 4.0 mi Calm Calm - N/A   Clear
2:35 AM 51.8 °F 51.8 °F 100% 29.93 in 6.0 mi Calm Calm - N/A   Clear
2:55 AM 51.8 °F 51.8 °F 100% 29.92 in 5.0 mi Calm Calm - N/A   Clear
3:15 AM 51.8 °F 51.8 °F 100% 29.91 in 7.0 mi Calm Calm - N/A   Clear
3:35 AM 51.8 °F 51.8 °F 100% 29.90 in 5.0 mi Calm Calm - N/A   Clear
3:55 AM 53.6 °F 53.6 °F 100% 29.89 in 6.0 mi Calm Calm - N/A   Clear
4:15 AM 53.6 °F 53.6 °F 100% 29.88 in 6.0 mi South 4.6 mph - N/A   Clear
4:35 AM 55.4 °F 53.6 °F 94% 29.88 in 7.0 mi SSW 4.6 mph - N/A   Clear
4:55 AM 55.4 °F 53.6 °F 94% 29.88 in 8.0 mi Calm Calm - N/A   Clear
5:15 AM 55.4 °F 53.6 °F 94% 29.88 in 7.0 mi Calm Calm - N/A   Clear
5:35 AM 51.8 °F 51.8 °F 100% 29.87 in 2.5 mi Calm Calm - N/A   Clear
5:55 AM 51.8 °F 51.8 °F 100% 29.88 in 4.0 mi Calm Calm - N/A   Clear
6:15 AM 51.8 °F 51.8 °F 100% 29.87 in 3.0 mi Calm Calm - N/A   Mostly Cloudy
6:35 AM 53.6 °F 53.6 °F 100% 29.86 in 4.0 mi Calm Calm - N/A   Overcast
6:55 AM 55.4 °F 53.6 °F 94% 29.86 in 7.0 mi Calm Calm - N/A   Overcast
7:15 AM 55.4 °F 55.4 °F 100% 29.88 in 6.0 mi Calm Calm - N/A   Overcast
7:35 AM 55.4 °F 55.4 °F 100% 29.88 in 5.0 mi Calm Calm - N/A   Mostly Cloudy
7:55 AM 55.4 °F 55.4 °F 100% 29.88 in 5.0 mi Calm Calm - N/A   Mostly Cloudy
8:15 AM 57.2 °F 57.2 °F 100% 29.88 in 5.0 mi Calm Calm - N/A   Overcast
8:35 AM 59.0 °F 57.2 °F 94% 29.88 in 6.0 mi Calm Calm - N/A   Overcast
8:55 AM 60.8 °F 59.0 °F 94% 29.88 in 6.0 mi Calm Calm - N/A   Mostly Cloudy
9:15 AM 60.8 °F 59.0 °F 94% 29.87 in 6.0 mi Calm Calm - N/A   Mostly Cloudy
9:35 AM 62.6 °F 60.8 °F 94% 29.87 in 8.0 mi Calm Calm - N/A   Scattered Clouds
9:55 AM 64.4 °F 62.6 °F 94% 29.87 in 5.0 mi Calm Calm - N/A   Partly Cloudy
10:15 AM 64.4 °F 62.6 °F 94% 29.86 in 5.0 mi SE 3.5 mph - N/A   Clear
10:35 AM 64.4 °F 62.6 °F 94% 29.86 in 9.0 mi SSE 4.6 mph - N/A   Mostly Cloudy
10:55 AM 64.4 °F 62.6 °F 94% 29.86 in 6.0 mi Calm Calm - N/A   Overcast
11:15 AM 66.2 °F 62.6 °F 88% 29.85 in 8.0 mi ESE 3.5 mph - N/A   Mostly Cloudy
11:35 AM 66.2 °F 62.6 °F 88% 29.85 in 7.0 mi SE 4.6 mph - N/A   Overcast
11:55 AM 66.2 °F 62.6 °F 88% 29.84 in 2.0 mi ESE 4.6 mph - N/A   Light Drizzle
12:15 PM 64.4 °F 64.4 °F 100% 29.83 in 1.2 mi Calm Calm - N/A   Light Drizzle
12:35 PM 64.4 °F 64.4 °F 100% 29.82 in 1.2 mi Calm Calm - N/A   Mostly Cloudy
12:55 PM 64.4 °F 64.4 °F 100% 29.81 in 1.5 mi Calm Calm - N/A   Light Drizzle
1:15 PM 64.4 °F 64.4 °F 100% 29.80 in 3.0 mi Calm Calm - N/A   Overcast
1:35 PM 66.2 °F 64.4 °F 94% 29.80 in 4.0 mi Calm Calm - N/A   Overcast
1:55 PM 66.2 °F 64.4 °F 94% 29.78 in 5.0 mi Calm Calm - N/A Rain Light Rain
2:15 PM 66.2 °F 64.4 °F 94% 29.77 in 0.5 mi Calm Calm - 0.03 in   Light Drizzle
2:35 PM 64.4 °F 64.4 °F 100% 29.75 in 2.5 mi Calm Calm - 0.03 in   Overcast
2:55 PM 64.4 °F 64.4 °F 100% 29.75 in 2.5 mi SSE 3.5 mph - 0.03 in   Overcast
3:15 PM 64.4 °F 64.4 °F 100% 29.74 in 1.0 mi SE 5.8 mph - N/A   Light Drizzle
3:35 PM 64.4 °F 64.4 °F 100% 29.74 in 3.0 mi SSE 6.9 mph - N/A   Overcast
3:55 PM 64.4 °F 64.4 °F 100% 29.72 in 1.0 mi ESE 5.8 mph - N/A Rain Light Rain
4:15 PM 64.4 °F 64.4 °F 100% 29.73 in 5.0 mi SSE 5.8 mph - N/A   Overcast
4:35 PM 64.4 °F 64.4 °F 100% 29.72 in 2.0 mi ESE 3.5 mph - N/A   Mostly Cloudy
4:55 PM 64.4 °F 64.4 °F 100% 29.71 in 8.0 mi Calm Calm - N/A   Clear
5:15 PM 64.4 °F 64.4 °F 100% 29.72 in 8.0 mi South 3.5 mph - N/A   Partly Cloudy
5:35 PM 64.4 °F 64.4 °F 100% 29.73 in 5.0 mi South 4.6 mph - N/A Rain Light Rain
5:55 PM 64.4 °F 64.4 °F 100% 29.73 in 5.0 mi Calm Calm - N/A Rain Light Rain
6:15 PM 64.4 °F 64.4 °F 100% 29.73 in 2.0 mi Calm Calm - N/A Rain Light Rain
6:35 PM 64.4 °F 64.4 °F 100% 29.73 in 0.8 mi Calm Calm - 0.03 in Rain Light Rain
6:55 PM 62.6 °F 62.6 °F 100% 29.72 in 0.2 mi Calm Calm - 0.04 in Fog Fog
7:15 PM 62.6 °F 62.6 °F 100% 29.72 in 1.0 mi Calm Calm - N/A   Clear
7:35 PM 62.6 °F 62.6 °F 100% 29.72 in 0.8 mi Calm Calm - N/A   Mostly Cloudy
7:55 PM 62.6 °F 62.6 °F 100% 29.71 in 1.8 mi East 3.5 mph - N/A   Overcast
8:15 PM 62.6 °F 62.6 °F 100% 29.71 in 0.5 mi East 4.6 mph - N/A Fog Fog
8:35 PM 62.6 °F 62.6 °F 100% 29.69 in 3.0 mi SE 5.8 mph - N/A   Overcast
8:55 PM 62.6 °F 62.6 °F 100% 29.70 in 3.0 mi SE 3.5 mph - N/A   Overcast
9:15 PM 62.6 °F 62.6 °F 100% 29.70 in 3.0 mi SE 8.1 mph - N/A   Overcast
9:35 PM 62.6 °F 62.6 °F 100% 29.70 in 3.0 mi SE 10.4 mph - N/A   Overcast
9:55 PM 62.6 °F 62.6 °F 100% 29.71 in 3.0 mi SSE 5.8 mph - N/A   Overcast
10:15 PM 62.6 °F 62.6 °F 100% 29.73 in 3.0 mi South 5.8 mph - N/A   Overcast
10:35 PM 62.6 °F 62.6 °F 100% 29.72 in 3.0 mi SSE 5.8 mph - N/A   Overcast
10:55 PM 62.6 °F 62.6 °F 100% 29.70 in 3.0 mi SE 8.1 mph - N/A   Overcast
11:15 PM 62.6 °F 62.6 °F 100% 29.70 in 3.0 mi SSE 3.5 mph - N/A   Overcast
11:35 PM 62.6 °F 62.6 °F 100% 29.73 in 2.0 mi SSW 4.6 mph - N/A   Overcast
11:55 PM 62.6 °F 62.6 °F 100% 29.73 in 0.5 mi South 4.6 mph - N/A Fog Fog